Regional Weather Roundup
Issued by NWS

Home | Current Version | Previous Version | Text Only | Print | Product List | Glossary Off
Versions: 1 2 3 4 5 6 7 8 9 10 11 12 13 14 15 16 17 18 19 20 21 22 23 24 25 26 27 28 29 30 31 32 33 34 35 36 37 38 39 40 41 42 43 44 45 46 47 48 49 50

000
ASUS43 KFSD 281810
RWRSD

WEATHER ROUNDUP FOR SOUTH DAKOTA
NATIONAL WEATHER SERVICE SIOUX FALLS SD
1200 PM CST SUN DEC 28 2014

NOTE: "FAIR" INDICATES FEW OR NO CLOUDS BELOW 12,000 FEET WITH NO
SIGNIFICANT WEATHER AND/OR OBSTRUCTIONS TO VISIBILITY.


SDZ001>005-009-010-012>017-281900-
NORTHWEST AND NORTH CENTRAL SOUTH DAKOTA

CITY           SKY/WX    TMP DP  RH WIND       PRES   REMARKS
BUFFALO          N/A     22  15  75 E7        29.89F WCI  13
FAITH            N/A     20  13  74 SE12      30.00F WCI   8
MOBRIDGE       CLOUDY    20  15  81 E14       30.10S WCI   7
$$

SDZ012>016-024>037-041>051-057-063-072>074-281900-
SOUTHWEST AND SOUTH CENTRAL SOUTH DAKOTA

CITY           SKY/WX    TMP DP  RH WIND       PRES   REMARKS
RAPID CTY ARPT CLOUDY    19  11  70 CALM      29.95F
PIERRE         CLOUDY    16  12  84 E10       30.09S WCI   4
CUSTER         CLOUDY    20   8  60 NW3       29.83S
ELLSWORTH AFB  CLOUDY    23  13  67 NW3       29.94F
PHILIP         CLOUDY    17  11  77 CALM      30.03F
PINE RIDGE     CLOUDY    21  10  62 CALM      29.94F
WINNER         FAIR      18   7  62 NE5       30.07S WCI  11
$$

SDZ004>011-016>023-039-040-281900-
NORTHEAST SOUTH DAKOTA

CITY           SKY/WX    TMP DP  RH WIND       PRES   REMARKS
ABERDEEN       CLOUDY    13   8  81 NE12      30.21R WCI  -1
WATERTOWN      CLOUDY    15  12  88 NE10      30.13F WCI   2
SISSETON         N/A      8   2  76 N12       30.23R WCI  -7
$$

SDZ017-020-022-023-036>040-048>070-281900-
SOUTHEAST SOUTH DAKOTA

CITY           SKY/WX    TMP DP  RH WIND       PRES   REMARKS
SIOUX FALLS    MOSUNNY   13   9  84 N3        30.13F
HURON          SUNNY     16  10  77 NE6       30.16F WCI   7
CHAMBERLAIN    PTSUNNY   16   9  74 NE3       30.10F
MITCHELL       SUNNY     17  12  80 CALM      30.16S
YANKTON        MOSUNNY   12  12 100 N5        30.15F WCI   4
$$

ABBREVIATIONS USED IN REMARKS
   TC - TEMPERATURE IN CELSIUS
  WCI - WIND CHILL INDEX
   HX - HEAT INDEX
  VSB - VISIBILITY




USA.gov is the U.S. government's official web portal to all federal, state and local government web resources and services.